Location: *
(41.7492°S, 135.4150°W)
Time: 19:06:17
(UTC+00:00)

Lacrosse 4 Rocket - Pass Details

Date: 20 September 2021
Orbit: 541 x 616 km, 68.0° (Epoch: 16 October)

Event Time Altitude Azimuth Distance (km) Brightness Sun altitude
Rises 14:03:42 0° 2° (N) 2,870 4.9 -10.1°
Reaches altitude 10° 14:06:11 10° 14° (NNE) 1,980 4.2 -9.6°
Maximum altitude 14:09:57 27° 71° (ENE) 1,207 3.9 -9.0°
Drops below altitude 10° 14:13:46 10° 129° (SE) 2,008 5.2 -8.2°
Sets 14:16:18 0° 140° (SE) 2,919 5.8 -7.8°
